Simultaneous Nadir Overpasses (SNOs) Predictions

Prediction of SNOs between TERRA and METOP-C Satellite Orbit:

Table of predicted SNOs for the next 14.0 days since TLE Epoch: 3/6/2020
Index Date (TERRA) Time (TERRA) Lat,Lon (TERRA) SZA (TERRA ) Date (METOP-C) Time (METOP-C) Lat,Lon (METOP-C) SZA (METOP-C ) Distance(km) Time Diff (sec)
1 03/08/2020 07:30:46 81.29, 114.52 88.41 03/08/2020 07:30:35 81.29, 114.50 88.40 0.28 11
2 03/08/2020 08:20:12 -81.30, -77.56 91.57 03/08/2020 08:21:14 -81.30, -77.42 91.53 2.40 62
3 03/11/2020 03:04:59 81.29,-178.95 87.34 03/11/2020 03:04:57 81.29,-178.81 87.36 2.33 2
4 03/11/2020 03:54:26 -81.29, -11.37 92.68 03/11/2020 03:55:38 -81.29, -11.54 92.67 2.89 72
5 03/13/2020 21:49:47 -81.29, 79.87 93.73 03/13/2020 21:48:41 -81.29, 79.82 93.77 1.05 66
6 03/13/2020 22:39:13 81.30,-112.45 86.27 03/13/2020 22:39:21 81.29,-112.53 86.26 1.41 8
7 03/16/2020 17:24:02 -81.28, 145.99 94.86 03/16/2020 17:23:05 -81.29, 146.07 94.87 1.65 57
8 03/16/2020 18:13:27 81.30, -45.99 85.19 03/16/2020 18:13:44 81.30, -45.87 85.21 1.93 17
9 03/19/2020 12:58:14 -81.30,-147.16 95.89 03/19/2020 12:57:27 -81.29,-147.30 95.93 2.53 47




NCC Satellite Simultaneous Nadir Overpasses (SNOs) Prediction Service
